User: anonymous   Login
Location: Unspecified
(0.0000°N, 0.0000°E)
Time: 05:56:49
(UTC+00:00)
Language:

BIRD BB - Orbit

View from above orbital plane
View from above orbital plane
View from above satellite
View from above satellite

Ground track
Ground track

The orbit is defined by the following mean orbital elements,

1 42823U 98067MX  19126.46325411  .10871672  12483-4  53364-3 0  9992
2 42823  51.6136 126.1830 0002073 268.7751  91.3478 16.43067843104944
Epoch (UTC): 06 May 2019 11:07:05
Eccentricity: 0.0002073
inclination: 51.6136°
perigee height: 156 km
apogee height: 159 km
right ascension of ascending node: 126.1830°
argument of perigee: 268.7751°
revolutions per day: 16.43067843
mean anomaly at epoch: 91.3478°

The dashed part of the orbit path shows where the satellite is in the earth's shadow,  

DLR